Weather History for Kearney, NE

Change the Weather History Date:

Saturday, April 6, 2013

  Actual Average Record
Temperature  
Mean Temperature 59 °F 45 °F  
Max Temperature 72 °F 59 °F 89 °F (1991)
Min Temperature 46 °F 32 °F 5 °F (1994)
Degree Days  
Heating Degree Days 6 20  
Cooling Degree Days 0 0  
Growing Degree Days 10 (Base 50)    
Moisture  
Dew Point 36 °F    
Average Humidity 46    
Maximum Humidity 68    
Minimum Humidity 23    
Precipitation  
Precipitation 0.00 in - 1.45 in (1895)
Sea Level Pressure  
Sea Level Pressure 29.73 in    
Wind  
Wind Speed 12 mph (NW)    
Max Wind Speed 24 mph    
Max Gust Speed 33 mph    
Visibility 10 miles    
Events      
T = Trace of Precipitation, MM = Missing Value Source: NWS Daily Summary

Daily Weather History Graph

Daily Weather History Graph

Search for Another Location

Airport:

Trip Planner

Search our weather history database for the weather conditions in past years. The results will help you decide how hot, cold, wet, or windy it might be!

Date:

Astronomy

Apr. 06, 2013 Rise Set
Actual Time 7:10 AM CDT 8:06 PM CDT
Civil Twilight 6:43 AM CDT 8:34 PM CDT
Nautical Twilight 6:10 AM CDT 9:07 PM CDT
Astronomical Twilight 5:35 AM CDT 9:41 PM CDT
Moon 4:56 AM CDT (4/6) 4:35 PM CDT (4/6)
Length of Visible Light 13h 51m
Length of Day
12h 55m
Waning Crescent, 15% of the Moon is Illuminated
Apr 6
Waning Crescent
Apr 10
New
Apr 18
First Quarter
Apr 25
Full
May 2
Last Quarter

Hourly Weather History & Observations

Time (CDT) Temp. Dew Point Humidity Pressure Visibility Wind Dir Wind Speed Gust Speed Precip Events Conditions
12:15 AM 53.6 °F 41.0 °F 62% 29.63 in 10.0 mi South 17.3 mph - N/A   Clear
12:35 AM 53.6 °F 41.0 °F 62% 29.63 in 10.0 mi South 15.0 mph - N/A   Clear
12:55 AM 51.8 °F 41.0 °F 67% 29.63 in 10.0 mi South 16.1 mph - N/A   Clear
1:15 AM 53.6 °F 42.8 °F 67% 29.63 in 10.0 mi South 15.0 mph - N/A   Clear
1:35 AM 53.6 °F 42.8 °F 67% 29.63 in 10.0 mi SSW 12.7 mph - N/A   Scattered Clouds
1:55 AM 53.6 °F 42.8 °F 67% 29.63 in 10.0 mi South 12.7 mph - N/A   Scattered Clouds
2:15 AM 55.4 °F 42.8 °F 63% 29.65 in 10.0 mi WSW 8.1 mph - N/A   Scattered Clouds
2:35 AM 55.4 °F 42.8 °F 63% 29.64 in 10.0 mi SW 10.4 mph - N/A   Mostly Cloudy
2:55 AM 55.4 °F 42.8 °F 63% 29.62 in 10.0 mi SSW 11.5 mph - N/A   Scattered Clouds
3:15 AM 53.6 °F 41.0 °F 62% 29.63 in 10.0 mi SW 11.5 mph - N/A   Partly Cloudy
3:35 AM 53.6 °F 41.0 °F 62% 29.63 in 10.0 mi SW 9.2 mph - N/A   Clear
3:55 AM 51.8 °F 41.0 °F 67% 29.62 in 10.0 mi SSW 9.2 mph - N/A   Clear
4:15 AM 51.8 °F 41.0 °F 67% 29.62 in 10.0 mi SW 6.9 mph - N/A   Clear
4:35 AM 48.2 °F 39.2 °F 71% 29.62 in 10.0 mi SW 8.1 mph - N/A   Clear
4:55 AM 53.6 °F 39.2 °F 58% 29.61 in 10.0 mi NW 12.7 mph 17.3 mph N/A   Clear
5:15 AM 55.4 °F 35.6 °F 47% 29.62 in 10.0 mi NNW 18.4 mph - N/A   Clear
5:35 AM 53.6 °F 35.6 °F 51% 29.62 in 10.0 mi NNW 18.4 mph - N/A   Clear
5:55 AM 53.6 °F 35.6 °F 51% 29.61 in 10.0 mi North 15.0 mph - N/A   Partly Cloudy
6:15 AM 53.6 °F 33.8 °F 47% 29.62 in 10.0 mi NNW 13.8 mph - N/A   Mostly Cloudy
6:35 AM 51.8 °F 35.6 °F 54% 29.64 in 10.0 mi NNW 12.7 mph - N/A   Mostly Cloudy
6:55 AM 51.8 °F 35.6 °F 54% 29.65 in 10.0 mi NNW 12.7 mph - N/A   Partly Cloudy
7:15 AM 51.8 °F 35.6 °F 54% 29.68 in 10.0 mi NW 12.7 mph - N/A   Clear
7:35 AM 51.8 °F 35.6 °F 54% 29.69 in 10.0 mi NW 9.2 mph - N/A   Mostly Cloudy
7:55 AM 51.8 °F 37.4 °F 58% 29.72 in 10.0 mi NW 8.1 mph - N/A   Scattered Clouds
8:15 AM 51.8 °F 37.4 °F 58% 29.74 in 10.0 mi WNW 9.2 mph - N/A   Mostly Cloudy
8:35 AM 51.8 °F 39.2 °F 62% 29.74 in 10.0 mi NW 10.4 mph - N/A   Scattered Clouds
8:55 AM 53.6 °F 39.2 °F 58% 29.74 in 10.0 mi NNW 13.8 mph - N/A   Clear
9:15 AM 53.6 °F 39.2 °F 58% 29.74 in 10.0 mi NW 10.4 mph - N/A   Clear
9:35 AM 55.4 °F 39.2 °F 54% 29.74 in 10.0 mi WNW 21.9 mph 25.3 mph N/A   Clear
9:55 AM 57.2 °F 39.2 °F 51% 29.74 in 10.0 mi NW 19.6 mph 26.5 mph N/A   Clear
10:15 AM 59.0 °F 39.2 °F 48% 29.73 in 10.0 mi NNW 18.4 mph 23.0 mph N/A   Clear
10:35 AM 60.8 °F 39.2 °F 45% 29.73 in 10.0 mi NNW 24.2 mph 29.9 mph N/A   Clear
10:55 AM 60.8 °F 39.2 °F 45% 29.74 in 10.0 mi NNW 23.0 mph 33.4 mph N/A   Mostly Cloudy
11:15 AM 62.6 °F 39.2 °F 42% 29.75 in 10.0 mi NW 23.0 mph 31.1 mph N/A   Mostly Cloudy
11:35 AM 62.6 °F 39.2 °F 42% 29.76 in 10.0 mi NW 21.9 mph 31.1 mph N/A   Mostly Cloudy
11:55 AM 60.8 °F 39.2 °F 45% 29.77 in 10.0 mi NW 20.7 mph - N/A   Overcast
12:15 PM 60.8 °F 39.2 °F 45% 29.77 in 10.0 mi NNW 23.0 mph - N/A   Overcast
12:35 PM 60.8 °F 39.2 °F 45% 29.77 in 10.0 mi NNW 20.7 mph 32.2 mph N/A   Overcast
12:55 PM 62.6 °F 42.8 °F 48% 29.76 in 10.0 mi NNW 23.0 mph 28.8 mph N/A   Mostly Cloudy
1:15 PM 64.4 °F 41.0 °F 42% 29.76 in 10.0 mi NNW 20.7 mph 32.2 mph N/A   Partly Cloudy
1:35 PM 64.4 °F 41.0 °F 42% 29.76 in 10.0 mi NNW 21.9 mph 31.1 mph N/A   Partly Cloudy
1:55 PM 66.2 °F 39.2 °F 37% 29.75 in 10.0 mi NNW 19.6 mph 29.9 mph N/A   Scattered Clouds
2:15 PM 66.2 °F 37.4 °F 35% 29.76 in 10.0 mi NNW 19.6 mph 31.1 mph N/A   Scattered Clouds
2:35 PM 66.2 °F 37.4 °F 35% 29.77 in 10.0 mi NNW 13.8 mph 26.5 mph N/A   Mostly Cloudy
2:55 PM 68.0 °F 39.2 °F 35% 29.77 in 10.0 mi NW 19.6 mph 24.2 mph N/A   Scattered Clouds
3:15 PM 69.8 °F 37.4 °F 31% 29.76 in 10.0 mi North 18.4 mph 23.0 mph N/A   Mostly Cloudy
3:35 PM 69.8 °F 35.6 °F 28% 29.76 in 10.0 mi NNW 13.8 mph 24.2 mph N/A   Mostly Cloudy
3:55 PM 69.8 °F 35.6 °F 28% 29.77 in 10.0 mi NNW 12.7 mph 23.0 mph N/A   Mostly Cloudy
4:15 PM 71.6 °F 35.6 °F 27% 29.76 in 10.0 mi NNW 18.4 mph - N/A   Scattered Clouds
4:35 PM 69.8 °F 35.6 °F 28% 29.75 in 10.0 mi NNW 11.5 mph 27.6 mph N/A   Partly Cloudy
4:55 PM 71.6 °F 33.8 °F 25% 29.75 in 10.0 mi WNW 15.0 mph 19.6 mph N/A   Partly Cloudy
5:15 PM 71.6 °F 33.8 °F 25% 29.75 in 10.0 mi NW 16.1 mph 23.0 mph N/A   Mostly Cloudy
5:35 PM 71.6 °F 32.0 °F 23% 29.76 in 10.0 mi WNW 18.4 mph - N/A   Partly Cloudy
5:55 PM 69.8 °F 33.8 °F 27% 29.77 in 10.0 mi NW 11.5 mph - N/A   Scattered Clouds
6:15 PM 69.8 °F 32.0 °F 25% 29.77 in 10.0 mi NW 12.7 mph 16.1 mph N/A   Mostly Cloudy
6:35 PM 69.8 °F 30.2 °F 23% 29.77 in 10.0 mi NW 10.4 mph - N/A   Scattered Clouds
6:55 PM 69.8 °F 30.2 °F 23% 29.77 in 10.0 mi NW 10.4 mph - N/A   Mostly Cloudy
7:15 PM 69.8 °F 30.2 °F 23% 29.78 in 10.0 mi NNW 15.0 mph - N/A   Scattered Clouds
7:35 PM 66.2 °F 30.2 °F 26% 29.78 in 10.0 mi North 8.1 mph - N/A   Partly Cloudy
7:55 PM 66.2 °F 30.2 °F 26% 29.78 in 10.0 mi NNW 6.9 mph - N/A   Clear
8:15 PM 64.4 °F 30.2 °F 28% 29.78 in 10.0 mi NNW 5.8 mph - N/A   Clear
8:35 PM 62.6 °F 30.2 °F 30% 29.79 in 10.0 mi NNW 6.9 mph - N/A   Clear
8:55 PM 62.6 °F 28.4 °F 27% 29.79 in 10.0 mi NNW 3.5 mph - N/A   Clear
9:15 PM 60.8 °F 28.4 °F 29% 29.80 in 10.0 mi Calm Calm - N/A   Clear
9:35 PM 57.2 °F 30.2 °F 36% 29.80 in 10.0 mi Calm Calm - N/A   Clear
9:55 PM 55.4 °F 28.4 °F 36% 29.81 in 10.0 mi Calm Calm - N/A   Clear
10:15 PM 55.4 °F 30.2 °F 38% 29.82 in 10.0 mi Calm Calm - N/A   Clear
10:35 PM 53.6 °F 30.2 °F 41% 29.83 in 10.0 mi Calm Calm - N/A   Clear
10:55 PM 53.6 °F 30.2 °F 41% 29.83 in 10.0 mi Calm Calm - N/A   Clear
11:15 PM 51.8 °F 30.2 °F 44% 29.83 in 10.0 mi Calm Calm - N/A   Clear
11:35 PM 51.8 °F 30.2 °F 44% 29.83 in 10.0 mi Calm Calm - N/A   Clear
11:55 PM 48.2 °F 30.2 °F 50% 29.82 in 10.0 mi Calm Calm - N/A   Clear